Date String (YYYY-MM-DD hh:mm:ss) UTC,Instrument flags,Ambient pressure (hPa),Sample flow (lpm),Bypass flow (lpm),Sample temperature (°C),Ambient temperature (°C),ASC tube jacket temperature (°C),LED temperature (°C),Box temperature (°C),Sample RH (%),Span deviation,Mass concentration (μg/m³),Mass concentration (μg/m³),Mass concentration (μg/m³)
DateTimeUTC,F1_M11,P_M11,Q1_M11,Q2_M11,T1_M11,T2_M11,T3_M11,T4_M11,T5_M11,U1_M11,ZSPAN_M11,X0_M11,X2_M11,X1_M11
2022-04-25 16:00:00,,0833.6,5.01,0.00,21.9,21.2,00.0,30.9,23.6,11.5,0000.0,0009.58,0003.36,0002.56
2022-04-25 16:01:00,,0833.6,4.99,0.00,21.9,21.2,00.0,30.9,23.7,11.7,0000.0,0008.78,0003.34,0002.60
2022-04-25 16:02:00,,0833.6,5.00,0.00,21.9,21.3,00.0,30.9,23.7,11.6,0000.0,0008.65,0003.37,0002.63
2022-04-25 16:03:00,,0833.5,5.01,0.00,21.9,21.3,00.0,30.9,23.7,11.7,0000.0,0008.20,0003.40,0002.67
2022-04-25 16:04:00,,0833.6,4.99,0.00,21.9,21.4,00.0,30.9,23.7,11.9,0000.0,0008.79,0003.40,0002.69
2022-04-25 16:05:00,,0833.6,5.01,0.00,21.9,21.3,00.0,30.9,23.7,11.7,0000.0,0008.84,0003.42,0002.70
2022-04-25 16:06:00,,0833.6,5.01,0.00,21.9,21.3,00.0,30.9,23.6,11.6,0000.0,0008.89,0003.41,0002.72
2022-04-25 16:07:00,,0833.6,5.00,0.00,21.8,21.2,00.0,30.9,23.5,11.6,0000.0,0008.61,0003.42,0002.73
2022-04-25 16:08:00,,0833.6,5.01,0.00,21.8,21.2,00.0,30.9,23.6,11.7,0000.0,0008.32,0003.40,0002.74
2022-04-25 16:09:00,,0833.6,4.99,0.00,21.9,21.2,00.0,30.9,23.6,12.0,0000.0,0007.99,0003.42,0002.76
2022-04-25 16:10:00,,0833.6,5.00,0.00,21.9,21.3,00.0,30.9,23.6,11.9,0000.0,0007.64,0003.42,0002.77
2022-04-25 16:11:00,,0833.6,5.01,0.00,21.9,21.3,00.0,30.9,23.6,11.9,0000.0,0007.60,0003.42,0002.79
2022-04-25 16:12:00,,0833.6,5.01,0.00,21.8,21.2,00.0,30.9,23.6,11.9,0000.0,0007.93,0003.48,0002.81
2022-04-25 16:13:00,,0833.6,4.98,0.00,21.8,21.2,00.0,30.9,23.6,12.0,0000.0,0008.68,0003.53,0002.83
2022-04-25 16:14:00,,0833.6,5.01,0.00,21.8,21.2,00.0,30.9,23.6,12.1,0000.0,0008.69,0003.55,0002.85
2022-04-25 16:15:00,,0833.6,5.00,0.00,21.8,21.2,00.0,30.9,23.6,12.3,0000.0,0007.99,0003.56,0002.88
2022-04-25 16:16:00,,0833.6,5.01,0.00,21.8,21.2,00.0,30.8,23.6,12.3,0000.0,0008.06,0003.58,0002.90
2022-04-25 16:17:00,,0833.6,4.98,0.00,21.8,21.2,00.0,30.8,23.6,12.2,0000.0,0007.97,0003.57,0002.91
2022-04-25 16:18:00,,0833.6,5.01,0.00,21.9,21.2,00.0,30.8,23.6,12.3,0000.0,0007.88,0003.60,0002.95
2022-04-25 16:19:00,,0833.6,5.01,0.00,21.9,21.3,00.0,30.8,23.6,12.3,0000.0,0007.62,0003.63,0002.99
2022-04-25 16:20:00,,0833.6,5.01,0.00,21.9,21.3,00.0,30.8,23.6,12.2,0000.0,0007.70,0003.68,0003.05
2022-04-25 16:21:00,,0833.6,4.99,0.00,21.8,21.2,00.0,30.8,23.6,12.2,0000.0,0007.93,0003.75,0003.10
2022-04-25 16:22:00,,0833.6,5.00,0.00,21.8,21.2,00.0,30.8,23.5,12.2,0000.0,0008.48,0003.76,0003.14
2022-04-25 16:23:00,,0833.6,5.01,0.00,21.8,21.2,00.0,30.8,23.5,12.4,0000.0,0008.54,0003.74,0003.16
2022-04-25 16:24:00,,0833.6,5.00,0.00,21.8,21.2,00.0,30.8,23.6,12.3,0000.0,0007.93,0003.73,0003.19
2022-04-25 16:25:00,,0833.6,5.01,0.00,21.8,21.2,00.0,30.8,23.6,12.3,0000.0,0008.10,0003.75,0003.22
2022-04-25 16:26:00,,0833.5,4.99,0.00,21.8,21.2,00.0,30.8,23.6,12.4,0000.0,0008.71,0003.80,0003.25
2022-04-25 16:27:00,,0833.5,5.00,0.00,21.8,21.2,00.0,30.8,23.6,12.6,0000.0,0008.69,0003.83,0003.29
2022-04-25 16:28:00,,0833.6,5.01,0.00,21.8,21.2,00.0,30.8,23.6,12.5,0000.0,0009.29,0003.88,0003.32
2022-04-25 16:29:00,,0833.5,5.00,0.00,21.8,21.2,00.0,30.8,23.6,12.5,0000.0,0009.62,0003.91,0003.33
2022-04-25 16:30:00,,0833.5,4.99,0.00,21.8,21.2,00.0,30.8,23.6,12.5,0000.0,0010.30,0003.93,0003.35
2022-04-25 16:31:00,,0833.5,5.01,0.00,21.8,21.2,00.0,30.8,23.5,12.4,0000.0,0010.24,0003.92,0003.38
2022-04-25 16:32:00,,0833.5,5.01,0.00,21.8,21.2,00.0,30.8,23.5,12.4,0000.0,0010.27,0003.94,0003.40
2022-04-25 16:33:00,,0833.4,4.99,0.00,21.8,21.2,00.0,30.8,23.5,12.5,0000.0,0009.84,0004.00,0003.43
2022-04-25 16:34:00,,0833.4,5.01,0.00,21.8,21.2,00.0,30.8,23.5,12.5,0000.0,0009.67,0004.04,0003.45
2022-04-25 16:35:00,,0833.4,5.01,0.00,21.8,21.2,00.0,30.8,23.6,12.6,0000.0,0009.64,0004.04,0003.47
2022-04-25 16:36:00,,0833.4,5.00,0.00,21.8,21.2,00.0,30.8,23.6,12.7,0000.0,0009.51,0004.07,0003.48
2022-04-25 16:37:00,,0833.4,5.00,0.00,21.8,21.2,00.0,30.8,23.6,12.4,0000.0,0008.99,0004.10,0003.49
2022-04-25 16:38:00,,0833.4,5.00,0.00,21.8,21.2,00.0,30.8,23.6,12.5,0000.0,0009.04,0004.11,0003.51
2022-04-25 16:39:00,,0833.5,5.01,0.00,21.8,21.3,00.0,30.8,23.6,12.6,0000.0,0009.07,0004.14,0003.53
2022-04-25 16:40:00,,0833.5,4.99,0.00,21.8,21.3,00.0,30.8,23.6,12.5,0000.0,0009.09,0004.18,0003.55
2022-04-25 16:41:00,,0833.4,5.00,0.00,21.9,21.3,00.0,30.8,23.7,12.6,0000.0,0008.54,0004.23,0003.57
2022-04-25 16:42:00,,0833.4,5.01,0.00,21.9,21.3,00.0,30.8,23.7,12.5,0000.0,0008.69,0004.29,0003.58
2022-04-25 16:43:00,,0833.4,5.01,0.00,21.9,21.3,00.0,30.8,23.7,12.8,0000.0,0008.73,0004.31,0003.57
2022-04-25 16:44:00,,0833.4,4.99,0.00,21.9,21.3,00.0,30.8,23.7,12.6,0000.0,0009.46,0004.29,0003.58
2022-04-25 16:45:00,,0833.4,5.01,0.00,21.9,21.4,00.0,30.8,23.7,12.8,0000.0,0010.17,0004.28,0003.58
2022-04-25 16:46:00,,0833.4,5.00,0.00,21.9,21.4,00.0,30.8,23.7,12.8,0000.0,0010.08,0004.28,0003.59
2022-04-25 16:47:00,,0833.4,4.99,0.00,21.9,21.4,00.0,30.8,23.7,12.8,0000.0,0009.95,0004.26,0003.59
2022-04-25 16:48:00,,0833.4,5.01,0.00,21.9,21.4,00.0,30.8,23.7,12.8,0000.0,0010.08,0004.24,0003.59
2022-04-25 16:49:00,,0833.4,5.01,0.00,21.9,21.4,00.0,30.8,23.7,12.7,0000.0,0010.33,0004.24,0003.59
2022-04-25 16:50:00,,0833.4,4.98,0.00,21.9,21.3,00.0,30.8,23.6,12.6,0000.0,0010.10,0004.21,0003.60
2022-04-25 16:51:00,,0833.3,5.01,0.00,21.9,21.3,00.0,30.8,23.7,12.6,0000.0,0009.99,0004.20,0003.60
2022-04-25 16:52:00,,0833.3,5.01,0.00,21.9,21.3,00.0,30.8,23.7,12.8,0000.0,0009.81,0004.14,0003.60
2022-04-25 16:53:00,,0833.4,4.99,0.00,21.9,21.3,00.0,30.8,23.7,12.9,0000.0,0009.64,0004.08,0003.60
2022-04-25 16:54:00,,0833.3,5.00,0.00,21.9,21.3,00.0,30.8,23.7,13.0,0000.0,0009.43,0004.03,0003.60
2022-04-25 16:55:00,,0833.3,5.01,0.00,21.9,21.3,00.0,30.8,23.6,12.8,0000.0,0009.06,0004.04,0003.60
2022-04-25 16:56:00,,0833.3,5.00,0.00,21.9,21.3,00.0,30.8,23.6,12.8,0000.0,0008.13,0004.08,0003.61
2022-04-25 16:57:00,,0833.2,4.98,0.00,21.9,21.3,00.0,30.8,23.6,12.7,0000.0,0008.19,0004.10,0003.62
2022-04-25 16:58:00,,0833.2,5.00,0.00,21.9,21.3,00.0,30.8,23.6,12.7,0000.0,0008.45,0004.13,0003.64
2022-04-25 16:59:00,,0833.3,5.01,0.00,21.9,21.3,00.0,30.9,23.7,13.0,0000.0,0009.17,0004.20,0003.65
